Content
SEND FEEDBACK

Daily
Averages
Monthly
Summary
United States of America

EL PASO, TEXAS


Home > North America > United States > Texas
Elevation: 3918 feet     Latitude: 31 48N     Longitude: 106 24W

WEATHER
 
SELECT A DAY
Number of Records: 172,064;   Date Range: 1/1/95 - 8/12/14
 
SHARE

PRINT THIS DATA

[ ← Previous Day ]
WEATHER ALMANAC - AUGUST 31, 2013
[ Next Day → ]
[ °C ]   °F
Weather ElementAverageHighLow
Temperature84.3 °F95 °F (4:51 pm)71.1 °F (5:51 am)
Dewpoint57.7 °F66 °F (2:51 am)48.2 °F (9:51 pm)
Humidity45.3 %79 % (2:51 am)23 % (4:51 pm)
Barometer29.79 in29.87 in (8:51 am)29.71 in (4:51 pm)
Wind Speed4.7 mph11.5 mph (1:51 pm)
Wind Gust16.1 mph (3:51 pm)
Weather ElementAverage
Visibility10 mi
Wind DirectionSSE (154.3 °)

Weather ElementTotal
Precipitation---
Cooling Degree Days18.1 (Base 65)
Growing Degree Days33.1 (Base 50)
Averaged from 23 records on August 31, 2013
WEATHER CONDITIONS BREAKOUT
WIND DIRECTION BREAKOUT
WEATHER BY HOUR - AUGUST 31, 2013
[ °C ]   °F
Local TimeTemperatureDewpointHumidityBarometerVisibilityWind DirectionWind SpeedGust SpeedPrecipitationEventsConditions
1:51 AM75.9 °F64.9 °F69 %29.84 in10.0 miVariable3.5 mphScattered Clouds
2:51 AM73.0 °F66.0 °F79 %29.83 in10.0 miEast (90°)5.8 mphPartly Cloudy
3:51 AM73.0 °F64.9 °F76 %29.83 in10.0 miSE (130°)5.8 mphPartly Cloudy
4:51 AM72.0 °F64.0 °F76 %29.82 in10.0 miSE (140°)5.8 mphPartly Cloudy
5:51 AM71.1 °F64.0 °F78 %29.83 in10.0 miSE (140°)4.6 mphScattered Clouds
6:51 AM71.1 °F63.0 °F75 %29.85 in10.0 miESE (120°)3.5 mphPartly Cloudy
7:51 AM73.9 °F64.0 °F71 %29.86 in10.0 miEast (90°)4.6 mphPartly Cloudy
8:51 AM75.9 °F63.0 °F64 %29.87 in10.0 miCalmClear
9:51 AM81.0 °F63.0 °F54 %29.86 in10.0 miCalmPartly Cloudy
10:51 AM86.0 °F63.0 °F46 %29.85 in10.0 miCalmScattered Clouds
11:51 AM89.1 °F59.0 °F36 %29.84 in10.0 miCalmPartly Cloudy
12:51 PM91.0 °F57.9 °F33 %29.82 in10.0 miVariable4.6 mphPartly Cloudy
1:51 PM93.0 °F55.9 °F29 %29.79 in10.0 miWSW (240°)11.5 mphPartly Cloudy
2:51 PM93.9 °F55.0 °F27 %29.76 in10.0 miWest (280°)4.6 mphScattered Clouds
3:51 PM93.9 °F54.0 °F26 %29.73 in10.0 miSW (230°)8.1 mph16.1 mphScattered Clouds
4:51 PM95.0 °F52.0 °F23 %29.71 in10.0 miWSW (250°)5.8 mphScattered Clouds
5:51 PM93.9 °F51.1 °F23 %29.71 in10.0 miWSW (240°)4.6 mphScattered Clouds
6:51 PM93.0 °F51.1 °F24 %29.71 in10.0 miWest (260°)9.2 mphScattered Clouds
7:51 PM91.0 °F52.0 °F26 %29.72 in10.0 miWest (260°)9.2 mphScattered Clouds
8:51 PM90.0 °F50.0 °F25 %29.74 in10.0 miWSW (250°)5.8 mphPartly Cloudy
9:51 PM87.8 °F48.2 °F25 %29.75 in10.0 miWest (260°)3.5 mphPartly Cloudy
10:51 PM88.0 °F50.0 °F27 %29.74 in10.0 miWest (280°)3.5 mphPartly Cloudy
11:51 PM87.1 °F52.0 °F30 %29.73 in10.0 miWNW (290°)4.6 mphClear
Hourly data recorded from KELP, located miles away from El Paso, Texas







STORIES FROM OUR PARTNERS